Weather in Anopino

Russia / Vladimir Oblast     55°41′59″N   40°39′56″E
temp.,
°C
wind,
m/s
gust,
m/s
humid.,
%
clouds,
%
prec.,
mm/h
press.,
hPa
HPBL,
m
4 march, thu
thu400:00−1w51193100 0.1 1006764
03:00−2wsw51394100 0.3 1003699
06:000wsw71497100 0.8 9991077
09:00+1w71498100 1.5 9971040
12:000wnw61299100 0.8 998746
15:000wnw4880100 1.4 9981191
18:00−3nnw2789100 0.0 999215
21:00−6nw2291100 0.0 100028
5 march, fri
fri500:00−8nnw2296100 0.0 100121
03:00−9nw229599 0.0 100323
06:00−10wnw229685 0.0 100421
09:00−8w249584 0.1 1006183
12:00−4w359085 0.1 1007627
15:00−3wnw468493 0.9 1008857
18:00−6wnw248997 0.4 100998
21:00−10wnw248966 0.4 101389
6 march, sat
sat600:00−13nnw229529 0.0 101520
03:00−15n118914 0.0 101620
06:00−16wsw00860 0.0 101620
09:00−12ssw018416 0.0 101650
12:00−7nw117893 0.0 1016472
15:00−6nnw128294 0.1 1015549
18:00−10nnw2392100 0.1 101544
21:00−14nw229163 0.1 101520
7 march, sun
sun700:00−15sw23920 0.0 101432
03:00−14ssw410910 0.0 1011224
06:00−12ssw5139057 0.0 1008409
09:00−8ssw7149079 0.1 1004731
12:00−5ssw81492100 0.6 9991191
15:00−4sw71493100 2.4 9951157
18:00−6wnw61387100 2.0 995960
21:00−10w4117984 2.0 998314
8 march, mon
mon800:00−11sw4118321 0.0 998327
03:00−9sw5128451 0.0 997512
06:00−10ssw4109194 0.0 995413
09:00−8ssw499497 0.4 994579
12:00−6wnw5784100 0.9 996979
15:00−6wnw6986100 1.1 9991077
18:00−9nw61387100 0.5 1003820
21:00−12wnw4129191 0.5 1007419